EW5044 Weather Reports


time (UTC)temp
C
wind
direction
speed
KPH
gust
KPH
rain 1hr
cm
rain 24hr
cm
rain mn
cm
humidity
%
barometer
mb
20260906182401 38 112 3.2 8.0 0.00 0.00 0.00 36 1017.6
20260906181856 38 358 6.4 11.3 0.00 0.00 0.00 36 1017.8
20260906181352 39 335 9.7 20.9 0.00 0.00 0.00 36 1017.7
20260906180848 40 282 3.2 4.8 0.00 0.00 0.00 36 1017.7
20260906180342 40 9 4.8 8.0 0.00 0.00 0.00 35 1017.8
20260906175839 39 4 6.4 11.3 0.00 0.00 0.00 36 1018.0
20260906175335 38 180 3.2 8.0 0.00 0.00 0.00 36 1018.3
20260906174833 38 21 4.8 11.3 0.00 0.00 0.00 37 1018.3
20260906174333 38 62 8.0 16.1 0.00 0.00 0.00 37 1018.3
20260906173828 38 107 0.0 8.0 0.00 0.00 0.00 37 1018.5
20260906173323 38 283 8.0 14.5 0.00 0.00 0.00 39 1018.6
20260906172822 38 225 0.0 8.0 0.00 0.00 0.00 39 1019.0
20260906172319 37 96 3.2 17.7 0.00 0.00 0.00 39 1019.0
20260906171814 37 278 1.6 8.0 0.00 0.00 0.00 40 1018.9
20260906171309 37 40 3.2 9.7 0.00 0.00 0.00 38 1019.2
20260906170804 38 333 9.7 9.7 0.00 0.00 0.00 38 1019.2
20260906170301 38 0 0.0 6.4 0.00 0.00 0.00 38 1019.4
20260906165756 38 315 0.0 3.2 0.00 0.00 0.00 41 1019.5
20260906165255 37 60 0.0 9.7 0.00 0.00 0.00 43 1019.4
20260906164749 37 352 1.6 9.7 0.00 0.00 0.00 42 1019.6
20260906164244 38 267 8.0 8.0 0.00 0.00 0.00 42 1019.6
20260906163740 37 52 0.0 4.8 0.00 0.00 0.00 42 1019.8
20260906163236 36 315 8.0 9.7 0.00 0.00 0.00 45 1019.8
20260906162733 35 257 4.8 11.3 0.00 0.00 0.00 46 1019.7
20260906162227 36 324 0.0 8.0 0.00 0.00 0.00 46 1019.9
20260906161722 35 309 8.0 8.0 0.00 0.00 0.00 46 1020.0
20260906161221 35 213 3.2 6.4 0.00 0.00 0.00 46 1019.9
20260906160720 35 275 6.4 9.7 0.00 0.00 0.00 47 1020.1
20260906160220 35 56 3.2 9.7 0.00 0.00 0.00 45 1020.0
20260906155717 35 335 9.7 11.3 0.00 0.00 0.00 46 1019.9
20260906155212 35 270 4.8 9.7 0.00 0.00 0.00 46 1019.8
20260906154708 35 0 0.0 4.8 0.00 0.00 0.00 47 1019.8
20260906154208 34 265 6.4 11.3 0.00 0.00 0.00 49 1019.7
20260906153706 35 259 4.8 12.9 0.00 0.00 0.00 48 1019.9
20260906153201 34 287 4.8 12.9 0.00 0.00 0.00 49 1019.9
20260906152657 33 291 6.4 16.1 0.00 0.00 0.00 51 1019.7
20260906152151 33 328 3.2 9.7 0.00 0.00 0.00 50 1019.9
20260906151645 33 270 6.4 8.0 0.00 0.00 0.00 51 1019.8
20260906151142 33 270 4.8 9.7 0.00 0.00 0.00 52 1019.6
20260906150636 32 257 1.6 11.3 0.00 0.00 0.00 53 1019.8
20260906150131 32 283 3.2 8.0 0.00 0.00 0.00 53 1019.6
20260906145625 32 264 4.8 8.0 0.00 0.00 0.00 53 1019.5
20260906145119 32 243 1.6 11.3 0.00 0.00 0.00 54 1019.8
20260906144614 32 282 4.8 11.3 0.00 0.00 0.00 55 1019.7
20260906144109 31 262 4.8 9.7 0.00 0.00 0.00 57 1019.8
20260906143604 31 270 9.7 11.3 0.00 0.00 0.00 58 1019.9
20260906143101 30 225 8.0 11.3 0.00 0.00 0.00 60 1019.9
20260906142600 30 225 4.8 11.3 0.00 0.00 0.00 60 1019.8
20260906142055 30 213 11.3 12.9 0.00 0.00 0.00 61 1019.8
20260906141554 30 225 4.8 12.9 0.00 0.00 0.00 62 1020.1
20260906141050 30 217 9.7 11.3 0.00 0.00 0.00 63 1019.8
20260906140549 30 203 6.4 11.3 0.00 0.00 0.00 63 1019.9
20260906140043 30 209 6.4 11.3 0.00 0.00 0.00 63 1019.8
20260906135540 29 212 8.0 11.3 0.00 0.00 0.00 64 1019.7
20260906135036 29 236 9.7 11.3 0.00 0.00 0.00 64 1019.6
20260906134531 29 219 9.7 12.9 0.00 0.00 0.00 65 1019.5
20260906134026 28 226 11.3 11.3 0.00 0.00 0.00 65 1019.6
20260906133522 28 199 6.4 9.7 0.00 0.00 0.00 66 1019.5
20260906133017 28 209 9.7 9.7 0.00 0.00 0.00 65 1019.3
20260906132512 28 191 6.4 9.7 0.00 0.00 0.00 66 1019.4
20260906132008 28 213 6.4 8.0 0.00 0.00 0.00 67 1019.3
20260906131503 28 213 6.4 8.0 0.00 0.00 0.00 67 1019.3
20260906130958 27 166 4.8 8.0 0.00 0.00 0.00 68 1019.2
20260906130458 27 169 6.4 8.0 0.00 0.00 0.00 69 1019.2
20260906125952 27 187 4.8 4.8 0.00 0.00 0.00 71 1019.1
20260906125450 26 175 3.2 4.8 0.00 0.00 0.00 73 1019.3
20260906124949 26 180 3.2 4.8 0.00 0.00 0.00 74 1019.2
20260906124445 25 203 1.6 4.8 0.00 0.00 0.00 75 1019.2
20260906123939 25 216 3.2 4.8 0.00 0.00 0.00 76 1019.0
20260906123439 25 198 3.2 4.8 0.00 0.00 0.00 76 1019.1
20260906122933 25 219 4.8 4.8 0.00 0.00 0.00 76 1018.9
20260906122428 25 196 3.2 4.8 0.00 0.00 0.00 77 1018.9
20260906121925 24 202 3.2 3.2 0.00 0.00 0.00 77 1019.1
20260906121421 24 195 3.2 3.2 0.00 0.00 0.00 77 1018.9
20260906120917 24 215 0.0 3.2 0.00 0.00 0.00 77 1018.7
20260906120412 25 190 3.2 3.2 0.00 0.00 0.00 76 1018.7
20260906115908 25 209 1.6 4.8 0.00 0.00 0.00 76 1018.6
20260906115404 25 187 3.2 4.8 0.00 0.00 0.00 75 1018.6
20260906114903 25 180 3.2 4.8 0.00 0.00 0.00 75 1018.5
20260906114358 25 180 4.8 6.4 0.00 0.00 0.00 75 1018.5
20260906113854 25 180 3.2 6.4 0.00 0.00 0.00 75 1018.6
20260906113352 25 174 4.8 8.0 0.00 0.00 0.00 76 1018.3
20260906112848 23 178 4.8 6.4 0.00 0.00 0.00 80 1018.6
20260906112344 23 170 3.2 4.8 0.00 0.00 0.00 80 1018.4
20260906111843 23 168 0.0 3.2 0.00 0.00 0.00 80 1018.2
20260906111337 23 195 0.0 1.6 0.00 0.00 0.00 81 1018.3
20260906110827 23 203 0.0 1.6 0.00 0.00 0.00 81 1018.2
20260906110323 23 198 0.0 3.2 0.00 0.00 0.00 81 1018.2
20260906105822 23 180 3.2 3.2 0.00 0.00 0.00 80 1018.2
20260906105318 23 180 3.2 4.8 0.00 0.00 0.00 80 1018.1
20260906104813 23 180 1.6 3.2 0.00 0.00 0.00 80 1018.2
20260906104311 23 188 0.0 1.6 0.00 0.00 0.00 80 1018.2
20260906103809 23 185 1.6 3.2 0.00 0.00 0.00 79 1018.3
20260906103303 23 192 1.6 1.6 0.00 0.00 0.00 78 1018.2
20260906102759 24 246 0.0 0.0 0.00 0.00 0.00 77 1018.1
20260906102257 24 246 0.0 3.2 0.00 0.00 0.00 77 1018.1
20260906101753 25 186 0.0 3.2 0.00 0.00 0.00 76 1018.2
20260906101248 24 148 3.2 6.4 0.00 0.00 0.00 77 1018.3
20260906100744 23 150 3.2 3.2 0.00 0.00 0.00 80 1018.0
20260906100243 23 215 0.0 3.2 0.00 0.00 0.00 80 1018.2
20260906095739 24 209 0.0 1.6 0.00 0.00 0.00 80 1018.0
20260906095234 23 180 1.6 3.2 0.00 0.00 0.00 80 1018.1
20260906094733 23 194 1.6 1.6 0.00 0.00 0.00 80 1018.0
20260906094228 23 237 3.2 3.2 0.00 0.00 0.00 81 1018.1
20260906093725 23 195 0.0 1.6 0.00 0.00 0.00 80 1018.1
20260906093219 23 194 1.6 1.6 0.00 0.00 0.00 79 1017.9
20260906092715 23 286 0.0 1.6 0.00 0.00 0.00 79 1018.1
20260906092209 23 286 1.6 3.2 0.00 0.00 0.00 79 1017.8
20260906091705 23 325 0.0 4.8 0.00 0.00 0.00 79 1018.0
20260906091201 23 0 0.0 3.2 0.00 0.00 0.00 80 1017.8
20260906090656 23 328 3.2 3.2 0.00 0.00 0.00 80 1017.8
20260906090155 23 279 0.0 3.2 0.00 0.00 0.00 80 1017.9
20260906085655 23 0 3.2 4.8 0.00 0.00 0.00 82 1017.9
20260906085149 23 286 0.0 3.2 0.00 0.00 0.00 82 1017.6
20260906084644 23 270 0.0 0.0 0.00 0.00 0.00 82 1017.5
20260906084143 23 328 3.2 3.2 0.00 0.00 0.00 81 1017.6
20260906083638 23 279 0.0 1.6 0.00 0.00 0.00 80 1017.6
20260906083133 23 112 0.0 3.2 0.00 0.00 0.00 80 1017.5
20260906082629 23 0 0.0 4.8 0.00 0.00 0.00 79 1017.4
20260906082124 24 0 3.2 4.8 0.00 0.00 0.00 79 1017.5
20260906081620 23 45 3.2 4.8 0.00 0.00 0.00 79 1017.5
20260906081115 23 5 1.6 3.2 0.00 0.00 0.00 80 1017.5
20260906080612 23 337 0.0 3.2 0.00 0.00 0.00 79 1017.6
20260906080107 23 173 0.0 0.0 0.00 0.00 0.00 80 1017.6
20260906075601 23 148 3.2 3.2 0.00 0.00 0.00 82 1017.5
20260906075055 23 180 1.6 1.6 0.00 0.00 0.00 81 1017.6
20260906074550 23 203 0.0 1.6 0.00 0.00 0.00 80 1017.5
20260906074048 23 337 0.0 0.0 0.00 0.00 0.00 80 1017.6
20260906073538 23 337 0.0 0.0 0.00 0.00 0.00 80 1017.8
20260906073034 23 345 1.6 3.2 0.00 0.00 0.00 79 1017.9
20260906072529 23 352 3.2 4.8 0.00 0.00 0.00 79 1017.8
20260906072026 23 345 0.0 3.2 0.00 0.00 0.00 79 1017.9
20260906071522 23 261 0.0 1.6 0.00 0.00 0.00 79 1018.0
20260906071016 23 348 1.6 3.2 0.00 0.00 0.00 79 1017.8
20260906070513 23 270 0.0 1.6 0.00 0.00 0.00 79 1017.7
20260906070008 23 254 0.0 1.6 0.00 0.00 0.00 80 1018.0
20260906065508 23 270 0.0 0.0 0.00 0.00 0.00 80 1018.0
20260906065003 23 270 0.0 1.6 0.00 0.00 0.00 80 1017.8
20260906064459 23 203 0.0 3.2 0.00 0.00 0.00 80 1018.0
20260906063954 23 195 1.6 1.6 0.00 0.00 0.00 79 1017.9
20260906063449 23 203 0.0 1.6 0.00 0.00 0.00 79 1018.0
20260906062944 24 270 0.0 1.6 0.00 0.00 0.00 79 1017.9
20260906062439 24 194 0.0 3.2 0.00 0.00 0.00 76 1017.9
20260906061933 25 180 0.0 1.6 0.00 0.00 0.00 75 1018.0
20260906061424 25 240 0.0 0.0 0.00 0.00 0.00 75 1018.1
20260906060918 25 294 0.0 1.6 0.00 0.00 0.00 74 1017.9
20260906060415 25 0 0.0 0.0 0.00 0.00 0.00 73 1017.9
20260906055912 25 0 0.0 3.2 0.00 0.00 0.00 72 1017.9
20260906055407 25 279 0.0 3.2 0.00 0.00 0.00 72 1018.0
20260906054902 25 337 0.0 3.2 0.00 0.00 0.00 74 1017.9
20260906054357 25 279 0.0 0.0 0.00 0.00 0.00 75 1017.8
20260906053853 25 279 0.0 0.0 0.00 0.00 0.00 76 1017.9
20260906053349 25 279 0.0 0.0 0.00 0.00 0.00 75 1017.7
20260906052844 25 279 0.0 1.6 0.00 0.00 0.00 74 1017.8
20260906052341 25 270 0.0 1.6 0.00 0.00 0.00 74 1017.7
20260906051837 25 229 0.0 3.2 0.00 0.00 0.00 73 1017.8
20260906051337 26 270 0.0 0.0 0.00 0.00 0.00 72 1017.6
20260906050833 26 246 1.6 1.6 0.00 0.00 0.00 71 1017.7
20260906050327 26 0 0.0 3.2 0.00 0.00 0.00 70 1017.6
20260906045826 26 41 3.2 4.8 0.00 0.00 0.00 70 1017.8
20260906045320 26 60 4.8 4.8 0.00 0.00 0.00 69 1017.8
20260906044816 27 54 4.8 6.4 0.00 0.00 0.00 66 1017.7
20260906044311 27 140 0.0 3.2 0.00 0.00 0.00 64 1017.6
20260906043807 27 188 0.0 1.6 0.00 0.00 0.00 64 1017.7
20260906043303 27 194 0.0 0.0 0.00 0.00 0.00 63 1017.7
20260906042757 27 192 0.0 1.6 0.00 0.00 0.00 63 1017.8
20260906042256 27 180 1.6 3.2 0.00 0.00 0.00 63 1017.7
20260906041752 27 195 0.0 3.2 0.00 0.00 0.00 63 1017.8
20260906041247 28 261 0.0 3.2 0.00 0.00 0.00 62 1017.8
20260906040742 28 228 3.2 3.2 0.00 0.00 0.00 61 1017.5
20260906040237 27 218 3.2 4.8 0.00 0.00 0.00 63 1017.8
20260906035733 27 180 0.0 3.2 0.00 0.00 0.00 66 1017.9
20260906035228 26 162 1.6 4.8 0.00 0.00 0.00 68 1017.7
20260906034728 26 175 3.2 3.2 0.00 0.00 0.00 69 1017.7
20260906034222 26 180 1.6 3.2 0.00 0.00 0.00 70 1017.7
20260906033713 26 180 3.2 3.2 0.00 0.00 0.00 70 1017.5
20260906033213 26 186 1.6 3.2 0.00 0.00 0.00 70 1017.6
20260906032710 26 180 0.0 3.2 0.00 0.00 0.00 68 1017.7
20260906032209 26 180 3.2 4.8 0.00 0.00 0.00 69 1017.6
20260906031705 26 188 3.2 4.8 0.00 0.00 0.00 71 1017.7
20260906031200 26 152 3.2 9.7 0.00 0.00 0.00 72 1017.7
20260906030700 26 198 1.6 4.8 0.00 0.00 0.00 72 1017.4
20260906030155 27 270 0.0 1.6 0.00 0.00 0.00 70 1017.4
20260906025654 27 324 0.0 3.2 0.00 0.00 0.00 69 1017.3
20260906025154 27 350 4.8 6.4 0.00 0.00 0.00 69 1017.5
20260906024648 27 188 0.0 1.6 0.00 0.00 0.00 67 1017.3
20260906024147 27 246 0.0 0.0 0.00 0.00 0.00 67 1017.3
20260906023644 27 246 0.0 0.0 0.00 0.00 0.00 67 1017.2
20260906023143 27 180 0.0 0.0 0.00 0.00 0.00 68 1017.3
20260906022638 27 206 0.0 0.0 0.00 0.00 0.00 68 1017.1
20260906022135 27 240 0.0 3.2 0.00 0.00 0.00 68 1017.2
20260906021630 27 195 1.6 3.2 0.00 0.00 0.00 67 1017.1
20260906021128 27 180 0.0 1.6 0.00 0.00 0.00 66 1016.9
20260906020623 27 200 0.0 1.6 0.00 0.00 0.00 66 1016.8
20260906020118 28 157 0.0 3.2 0.00 0.00 0.00 64 1016.8
20260906015613 28 195 0.0 1.6 0.00 0.00 0.00 63 1016.9
20260906015111 28 279 0.0 0.0 0.00 0.00 0.00 62 1016.7
20260906014606 28 279 0.0 0.0 0.00 0.00 0.00 63 1016.7
20260906014103 28 151 0.0 0.0 0.00 0.00 0.00 62 1016.5
20260906013557 28 180 0.0 0.0 0.00 0.00 0.00 62 1016.6
20260906013053 28 188 0.0 1.6 0.00 0.00 0.00 62 1016.5
20260906012548 29 200 0.0 1.6 0.00 0.00 0.00 61 1016.5
20260906012047 30 160 0.0 1.6 0.00 0.00 0.00 59 1016.6
20260906011544 30 235 3.2 4.8 0.00 0.00 0.00 59 1016.4
20260906011043 30 180 0.0 0.0 0.00 0.00 0.00 57 1016.3
20260906010539 30 286 0.0 0.0 0.00 0.00 0.00 58 1016.4
20260906010035 30 286 0.0 0.0 0.00 0.00 0.00 57 1016.1
20260906005534 31 270 0.0 0.0 0.00 0.00 0.00 55 1016.3
20260906005033 31 286 0.0 0.0 0.00 0.00 0.00 53 1016.3
20260906004532 32 254 0.0 0.0 0.00 0.00 0.00 51 1016.0
20260906004028 33 254 0.0 0.0 0.00 0.00 0.00 50 1016.3
20260906003523 33 249 0.0 1.6 0.00 0.00 0.00 47 1016.4
20260906003019 35 279 0.0 1.6 0.00 0.00 0.00 46 1016.1
20260906002513 36 254 1.6 3.2 0.00 0.00 0.00 46 1016.1
20260906002008 36 270 0.0 1.6 0.00 0.00 0.00 42 1016.1
20260906001504 36 165 0.0 0.0 0.00 0.00 0.00 41 1016.1
20260906000958 36 165 0.0 0.0 0.00 0.00 0.00 41 1016.1
20260906000455 36 165 0.0 0.0 0.00 0.00 0.00 41 1016.4
20260905235953 36 165 0.0 0.0 0.00 0.00 0.00 41 1016.3
20260905235448 36 131 0.0 3.2 0.00 0.00 0.00 40 1016.4
20260905234943 36 121 0.0 4.8 0.00 0.00 0.00 40 1016.4
20260905234438 37 126 0.0 4.8 0.00 0.00 0.00 39 1016.3
20260905233932 37 132 3.2 4.8 0.00 0.00 0.00 38 1016.1
20260905233428 37 203 0.0 4.8 0.00 0.00 0.00 37 1016.0
20260905232927 37 154 3.2 4.8 0.00 0.00 0.00 37 1016.4
20260905232423 37 133 4.8 4.8 0.00 0.00 0.00 37 1016.3
20260905231918 37 157 1.6 4.8 0.00 0.00 0.00 38 1016.1
20260905231414 37 346 0.0 4.8 0.00 0.00 0.00 39 1016.3
20260905230911 37 128 6.4 8.0 0.00 0.00 0.00 38 1016.0
20260905230408 37 103 0.0 3.2 0.00 0.00 0.00 40 1016.1
20260905225901 36 111 1.6 3.2 0.00 0.00 0.00 42 1016.0
20260905225356 36 140 0.0 3.2 0.00 0.00 0.00 42 1016.3
20260905224846 36 151 0.0 1.6 0.00 0.00 0.00 41 1016.3
20260905224341 36 128 3.2 4.8 0.00 0.00 0.00 40 1016.1
20260905223835 37 355 0.0 4.8 0.00 0.00 0.00 38 1015.9
20260905223333 37 172 0.0 3.2 0.00 0.00 0.00 38 1015.9
20260905222828 36 345 1.6 3.2 0.00 0.00 0.00 39 1016.1
20260905222327 36 340 0.0 0.0 0.00 0.00 0.00 39 1016.1
20260905221823 36 337 0.0 3.2 0.00 0.00 0.00 39 1016.3
20260905221320 36 355 3.2 4.8 0.00 0.00 0.00 39 1016.3
20260905220815 36 355 0.0 4.8 0.00 0.00 0.00 39 1016.3
20260905220311 37 6 1.6 4.8 0.00 0.00 0.00 39 1016.3
20260905215810 37 14 4.8 4.8 0.00 0.00 0.00 39 1016.5
20260905215306 37 353 0.0 6.4 0.00 0.00 0.00 39 1016.4
20260905214802 37 10 6.4 11.3 0.00 0.00 0.00 38 1016.3
20260905214258 39 17 4.8 11.3 0.00 0.00 0.00 36 1016.4
20260905213753 40 352 4.8 14.5 0.00 0.00 0.00 35 1016.6
20260905213249 40 48 6.4 11.3 0.00 0.00 0.00 34 1016.4
20260905212743 40 133 4.8 17.7 0.00 0.00 0.00 35 1016.6
20260905212238 38 117 3.2 9.7 0.00 0.00 0.00 37 1016.6
20260905211737 39 135 12.9 16.1 0.00 0.00 0.00 35 1016.4
20260905211233 38 214 6.4 11.3 0.00 0.00 0.00 36 1016.8
20260905210729 38 102 0.0 12.9 0.00 0.00 0.00 36 1016.8
20260905210229 38 128 9.7 11.3 0.00 0.00 0.00 36 1016.7
20260905205728 38 166 9.7 12.9 0.00 0.00 0.00 36 1016.8
20260905205222 39 132 0.0 6.4 0.00 0.00 0.00 35 1017.1
20260905204716 39 353 6.4 6.4 0.00 0.00 0.00 35 1017.0
20260905204212 39 151 0.0 9.7 0.00 0.00 0.00 36 1017.1
20260905203706 38 326 4.8 11.3 0.00 0.00 0.00 36 1017.6
20260905203202 38 276 4.8 8.0 0.00 0.00 0.00 38 1017.3
20260905202657 37 304 6.4 12.9 0.00 0.00 0.00 38 1017.4
20260905202152 38 8 9.7 11.3 0.00 0.00 0.00 37 1017.5
20260905201648 38 8 8.0 14.5 0.00 0.00 0.00 37 1017.7
20260905201147 38 334 6.4 11.3 0.00 0.00 0.00 38 1017.8
20260905200643 38 5 3.2 11.3 0.00 0.00 0.00 37 1017.9
20260905200138 38 352 0.0 9.7 0.00 0.00 0.00 37 1017.8
20260905195636 39 4 3.2 12.9 0.00 0.00 0.00 38 1017.9
20260905195131 39 53 0.0 8.0 0.00 0.00 0.00 36 1017.8
20260905194627 38 227 4.8 6.4 0.00 0.00 0.00 37 1017.9
20260905194126 37 203 9.7 12.9 0.00 0.00 0.00 38 1018.0
20260905193621 38 177 3.2 8.0 0.00 0.00 0.00 38 1017.9
20260905193116 38 207 4.8 17.7 0.00 0.00 0.00 38 1018.1
20260905192612 38 194 3.2 8.0 0.00 0.00 0.00 38 1018.3
20260905192107 38 330 4.8 6.4 0.00 0.00 0.00 36 1018.1
20260905191606 38 156 4.8 8.0 0.00 0.00 0.00 38 1018.2
20260905191105 37 95 0.0 14.5 0.00 0.00 0.00 38 1018.3
20260905190603 37 346 8.0 12.9 0.00 0.00 0.00 39 1018.5
20260905185601 37 347 4.8 9.7 0.00 0.00 0.00 40 1018.6
20260905185056 37 4 11.3 17.7 0.00 0.00 0.00 40 1018.7
20260905184551 37 304 4.8 12.9 0.00 0.00 0.00 41 1018.7
20260905184049 37 180 3.2 12.9 0.00 0.00 0.00 42 1019.0
20260905183543 36 207 8.0 11.3 0.00 0.00 0.00 44 1019.0
20260905183038 36 233 4.8 11.3 0.00 0.00 0.00 44 1019.1